Weather History for Chicago Executive, IL

Change the Weather History Date:

Sunday, October 7, 2012

  Actual Average Record
Temperature  
Mean Temperature 43 °F 55 °F  
Max Temperature 51 °F 65 °F 88 °F (2007)
Min Temperature 34 °F 45 °F 30 °F (2000)
Degree Days  
Heating Degree Days 22 10  
Month to date heating degree days 83 65  
Since 1 July heating degree days 217 177  
Cooling Degree Days 0 1  
Month to date cooling degree days 0 7  
Year to date cooling degree days 1225 785  
Moisture  
Dew Point 24 °F    
Average Humidity 48    
Maximum Humidity 67    
Minimum Humidity 29    
Precipitation  
Precipitation 0.00 in 0.08 in 0.70 in (2008)
Month to date precipitation 0.41 0.76  
Year to date precipitation 16.70 26.45  
Sea Level Pressure  
Sea Level Pressure 30.18 in    
Wind  
Wind Speed 6 mph (WNW)    
Max Wind Speed 16 mph    
Max Gust Speed 22 mph    
Visibility 10 miles    
Events      
T = Trace of Precipitation, MM = Missing Value Source: NWS Daily Summary

Daily Weather History Graph

Daily Weather History Graph

Search for Another Location

Airport:

Trip Planner

Search our weather history database for the weather conditions in past years. The results will help you decide how hot, cold, wet, or windy it might be!

Date:

Astronomy

Oct. 07, 2012 Rise Set
Actual Time 6:55 AM CDT 6:22 PM CDT
Civil Twilight 6:27 AM CDT 6:50 PM CDT
Nautical Twilight 5:55 AM CDT 7:22 PM CDT
Astronomical Twilight 5:22 AM CDT 7:54 PM CDT
Moon 11:29 PM CDT (10/7) 1:37 PM CDT (10/7)
Length of Visible Light 12h 22m
Length of Day
11h 26m
Waning Gibbous, 56% of the Moon is Illuminated
Oct 7
Waning Gibbous
Oct 8
Last Quarter
Oct 15
New
Oct 21
First Quarter
Oct 29
Full

Hourly Weather History & Observations

Time (CDT) Temp. Windchill Dew Point Humidity Pressure Visibility Wind Dir Wind Speed Gust Speed Precip Events Conditions
12:52 AM 43.0 °F 39.5 °F 28.0 °F 56% 30.19 in 10.0 mi WNW 5.8 mph - N/A   Overcast
1:52 AM 42.1 °F 37.7 °F 28.0 °F 58% 30.19 in 10.0 mi WNW 6.9 mph - N/A   Overcast
2:52 AM 42.1 °F 38.4 °F 28.0 °F 58% 30.18 in 10.0 mi WNW 5.8 mph - N/A   Overcast
3:52 AM 41.0 °F 35.8 °F 28.0 °F 60% 30.17 in 10.0 mi WNW 8.1 mph - N/A   Overcast
4:52 AM 41.0 °F 37.1 °F 28.9 °F 62% 30.17 in 10.0 mi WNW 5.8 mph - N/A   Overcast
5:52 AM 39.0 °F 34.8 °F 28.9 °F 67% 30.17 in 10.0 mi WNW 5.8 mph - N/A   Overcast
6:52 AM 39.9 °F 35.8 °F 28.9 °F 65% 30.17 in 10.0 mi WNW 5.8 mph - N/A   Overcast
7:52 AM 41.0 °F 37.1 °F 30.0 °F 65% 30.19 in 10.0 mi WNW 5.8 mph - N/A   Overcast
8:52 AM 43.0 °F 38.2 °F 28.9 °F 58% 30.20 in 10.0 mi NNW 8.1 mph - N/A   Overcast
9:52 AM 44.1 °F 40.1 °F 26.1 °F 49% 30.21 in 10.0 mi NW 6.9 mph - N/A   Overcast
10:52 AM 46.0 °F 41.9 °F 25.0 °F 44% 30.21 in 10.0 mi NNE 8.1 mph - N/A   Mostly Cloudy
11:52 AM 48.0 °F - 21.0 °F 34% 30.20 in 10.0 mi West 9.2 mph 16.1 mph N/A   Overcast
12:52 PM 48.9 °F - 19.0 °F 31% 30.20 in 10.0 mi West 11.5 mph - N/A   Scattered Clouds
1:52 PM 48.0 °F - 19.9 °F 33% 30.18 in 10.0 mi WNW 11.5 mph 21.9 mph N/A   Partly Cloudy
2:52 PM 48.9 °F - 19.0 °F 31% 30.17 in 10.0 mi West 10.4 mph 16.1 mph N/A   Partly Cloudy
3:52 PM 50.0 °F - 19.0 °F 29% 30.15 in 10.0 mi North 4.6 mph - N/A   Partly Cloudy
4:52 PM 48.9 °F - 18.0 °F 29% 30.15 in 10.0 mi WSW 4.6 mph - N/A   Clear
5:52 PM 48.9 °F - 18.0 °F 29% 30.14 in 10.0 mi WSW 8.1 mph - N/A   Clear
6:52 PM 46.9 °F - 19.0 °F 33% 30.14 in 10.0 mi SW 4.6 mph - N/A   Clear
7:52 PM 44.1 °F 42.5 °F 21.0 °F 40% 30.16 in 10.0 mi Variable 3.5 mph - N/A   Clear
8:52 PM 42.1 °F 40.2 °F 21.9 °F 45% 30.17 in 10.0 mi SSW 3.5 mph - N/A   Clear
9:52 PM 37.0 °F - 24.1 °F 59% 30.17 in 10.0 mi Calm Calm - N/A   Clear
10:52 PM 35.1 °F 32.2 °F 24.1 °F 64% 30.17 in 10.0 mi South 3.5 mph - N/A   Clear
11:52 PM 37.9 °F 35.5 °F 23.0 °F 55% 30.17 in 10.0 mi SSW 3.5 mph - N/A   Clear